QPF
0.00 0.00 0.00 0.00 0.00 0.00 0.00 0.00 0.00 0.00 0.00 0.00 0.00 0.00 0.00 0.00 0.00 0.00 0.00 0.00 0.00 0.00
0.00 0.00 0.00 0.00 0.00 0.00 0.00 0.00 0.00 0.00 0.00 0.00 0.00 0.00 0.00 0.00 0.00 0.00 0.00 0.00 0.00 0.00
0.00 0.00 0.00 0.00 0.00 0.00 0.00 0.00 0.00 0.00 0.00 0.00 0.00 0.00 0.00 0.00 0.00 0.00 0.00 0.00 0.00 0.00
0.00 0.00 0.00 0.00 0.00 0.00 0.00 0.00 0.00 0.00 0.00 0.00 0.00 0.00 0.00 0.00 0.00 0.00 0.00 0.00 0.00 0.00
0.00 0.00 0.00 0.00 0.00 0.00 0.00 0.00 0.00 0.00 0.00 0.00 0.00 0.00 0.00 0.00 0.00 0.00 0.00 0.00 0.00 0.00
0.00 0.00 0.00 0.00 0.00 0.00 0.00 0.00 0.00 0.00 0.00 0.00 0.00 0.00 0.00 0.00 0.00 0.00 0.00 0.00 0.00 0.00
0.00 0.00 0.00 0.00 0.00 0.00 0.00 0.00 0.00 0.00 0.00 0.00 0.00 0.00 0.00 0.00 0.00 0.00 0.00 0.00 0.00 0.00
0.00 0.00 0.00 0.00 0.00 0.00 0.00 0.00 0.00 0.00 0.00 0.00 0.00 0.00 0.00 0.00 0.00 0.00 0.00 0.00 0.00 0.00
0.00 0.00 0.00 0.00 0.00 0.00 0.00 0.00 0.00 0.00 0.00 0.00 0.00 0.00 0.00 0.00 0.00 0.00 0.00 0.00 0.00 0.00
0.00 0.00 0.00 0.00 0.00 0.00 0.00 0.00 0.00 0.00 0.00 0.00 0.00 0.00 0.00 0.00 0.00 0.00 0.00 0.00 0.00 0.00
0.00 0.00 0.00 0.00 0.00 0.00 0.00 0.00 0.00 0.00 0.00 0.00 0.00 0.00 0.00 0.00 0.00 0.00 0.00 0.00 0.00 0.00
0.00 0.00 0.00 0.00 0.00 0.00 0.00 0.00 0.00 0.00 0.00 0.00 0.00 0.00 0.00 0.00 0.00 0.00 0.00 0.00 0.00 0.00
0.00 0.00 0.00 0.00 0.00 0.00 0.00 0.00 0.00 0.00 0.00 0.00 0.00 0.00 0.00 0.00 0.00 0.00 0.00 0.00 0.00 0.00
0.00 0.00 0.00 0.00 0.00 0.00 0.00 0.00 0.00 0.00 0.00 0.00 0.00 0.00 0.00 0.00 0.00 0.00 0.00 0.00 0.00 0.00
MSLP
1021.26 1021.48 1021.78 1022.18 1022.28 1022.59 1023.03 1023.62 1023.89 1024.17 1024.30 1024.39 1024.48 1024.28 1024.08 1024.21 1024.08 1024.22 1024.25 1024.59 1024.66 1024.24
1021.49 1021.76 1022.25 1022.70 1022.78 1022.91 1023.33 1023.84 1024.27 1024.52 1024.68 1024.79 1024.87 1024.69 1024.34 1024.54 1024.73 1024.69 1024.96 1025.06 1025.10 1024.89
1021.80 1022.18 1022.60 1022.85 1023.15 1023.46 1023.87 1024.08 1024.47 1024.76 1024.90 1025.10 1025.13 1024.99 1024.80 1024.86 1025.33 1025.26 1025.39 1025.47 1025.63 1025.49
1021.94 1022.44 1022.86 1023.21 1023.60 1023.94 1024.12 1024.41 1024.65 1024.90 1025.13 1025.30 1025.31 1025.44 1025.36 1025.38 1025.57 1025.52 1025.69 1025.85 1025.78 1025.76
1022.10 1022.63 1023.09 1023.46 1023.98 1024.12 1024.45 1024.75 1024.85 1025.05 1025.39 1025.65 1025.75 1025.93 1025.88 1025.84 1025.91 1025.93 1025.99 1026.08 1025.91 1025.91
1022.07 1022.66 1023.19 1023.72 1024.08 1024.34 1024.78 1024.89 1025.14 1025.35 1025.72 1026.07 1026.33 1026.33 1026.19 1026.21 1026.25 1026.27 1026.33 1026.35 1026.13 1026.00
1021.81 1022.54 1023.24 1023.73 1024.14 1024.51 1024.73 1024.90 1025.32 1025.73 1026.09 1026.40 1026.70 1027.02 1026.94 1026.57 1026.61 1026.55 1026.45 1026.38 1026.28 1026.27
1021.82 1022.53 1023.22 1023.75 1024.29 1024.71 1024.88 1025.22 1025.65 1025.97 1026.22 1026.57 1027.21 1028.45 1028.54 1027.58 1026.92 1026.67 1026.50 1026.34 1026.20 1026.13
1021.77 1022.51 1023.14 1023.86 1024.43 1024.88 1025.28 1025.64 1025.85 1026.06 1026.41 1026.85 1028.09 1029.54 1029.39 1029.12 1027.44 1026.81 1026.64 1026.39 1026.24 1026.09
1021.63 1022.38 1023.17 1023.81 1024.43 1024.93 1025.36 1025.75 1025.93 1026.25 1026.73 1027.51 1028.52 1029.59 1029.34 1029.10 1027.53 1026.91 1026.76 1026.58 1026.40 1026.23
1021.43 1022.23 1023.07 1023.64 1024.29 1024.86 1025.31 1025.62 1025.93 1026.46 1027.04 1027.62 1028.98 1029.66 1029.31 1028.70 1027.29 1026.78 1026.68 1026.60 1026.53 1026.77
1021.07 1021.95 1022.80 1023.45 1024.17 1024.65 1025.04 1025.46 1026.04 1026.52 1027.05 1027.46 1028.74 1029.67 1029.58 1029.01 1026.95 1026.87 1026.70 1026.45 1026.60 1027.13
1020.73 1021.59 1022.45 1023.20 1023.86 1024.54 1024.96 1025.39 1025.84 1026.47 1027.17 1027.73 1028.34 1029.89 1029.78 1029.23 1027.45 1027.32 1026.96 1026.69 1026.71 1028.08
1020.43 1021.35 1022.19 1023.01 1023.75 1024.40 1024.83 1025.37 1025.82 1026.38 1026.97 1027.59 1028.11 1029.37 1029.64 1029.60 1028.26 1028.34 1027.45 1027.07 1027.17 1027.36
Thickness
5613 5612 5610 5607 5607 5605 5601 5596 5593 5590 5587 5586 5584 5584 5583 5580 5578 5574 5570 5564 5559 5559
5604 5603 5599 5596 5596 5596 5592 5587 5584 5580 5578 5576 5574 5573 5573 5570 5565 5562 5556 5551 5546 5545
5593 5592 5590 5589 5587 5585 5582 5579 5575 5572 5569 5566 5565 5563 5562 5559 5551 5548 5543 5539 5533 5530
5585 5583 5581 5579 5577 5574 5572 5569 5566 5563 5560 5557 5555 5551 5549 5546 5540 5538 5533 5527 5524 5519
5577 5574 5572 5570 5566 5565 5562 5559 5557 5554 5550 5546 5543 5539 5537 5534 5530 5526 5522 5517 5514 5510
5569 5566 5563 5560 5557 5555 5551 5551 5547 5544 5540 5535 5531 5529 5527 5523 5519 5516 5511 5506 5504 5500
5563 5559 5555 5552 5549 5546 5544 5542 5537 5533 5529 5525 5522 5516 5514 5513 5510 5506 5502 5498 5493 5488
5555 5552 5548 5544 5540 5536 5535 5531 5527 5525 5521 5517 5510 5500 5496 5499 5501 5498 5494 5490 5486 5481
5547 5544 5541 5536 5532 5528 5525 5521 5519 5518 5514 5509 5496 5487 5486 5484 5491 5489 5485 5482 5478 5473
5541 5537 5533 5529 5525 5521 5517 5514 5513 5509 5505 5497 5486 5480 5480 5479 5481 5481 5477 5474 5469 5464
5536 5531 5526 5523 5518 5514 5511 5509 5506 5501 5495 5489 5478 5474 5474 5474 5474 5474 5470 5466 5461 5452
5531 5525 5520 5516 5511 5508 5506 5503 5498 5493 5488 5485 5475 5467 5464 5463 5470 5466 5463 5458 5450 5440
5525 5520 5515 5510 5506 5502 5500 5497 5493 5487 5480 5474 5470 5458 5454 5455 5459 5456 5453 5448 5441 5427
5520 5515 5509 5504 5500 5496 5494 5490 5486 5481 5475 5468 5463 5452 5449 5444 5448 5442 5442 5437 5428 5418